THOR ABLESTAR DEB, 334

Orbit data source: Space-Track

THOR ABLESTAR DEB, 334 is space debris in LEO originally from a launch on Thu, 29 Jun 1961 UTC launched from the Air Force Eastern Test Range (AFETR). Debris objects in space refer to the collection of defunct objects orbiting the Earth. Examples of debris include non-operational satellites, rocket bodies, and fragments generated from explosions, collisions, or faulty payload assembly.

Loading next visibility...
Identifier
334, 1961-015DL
Orbit
LEO
Country
Flag of USUS
Related business
Manufacturer
Unknown
Mission
Spacecraft
Bus & Motor
Unknown
Mass
Unknown
Launch date (UTC)
1961-06-29 (64 years ago)
Launch vehicle
Unknown
Launch site
Air Force Eastern Test Range (AFETR)
Object type
Payload
Rocket body
Debris
Shape & HBR
Unknown shape, 0.1 m
Radar Cross Section
Small (<0.1 m²)

Expand to show TLE details & history
Last TLE update: 7 hours ago

TLE from 7 hours ago
0 THOR ABLESTAR DEB
1   334U 61015DL  25299.01066525  .00000089  00000-0  12578-3 0  9998
2   334  66.9261  33.7659 0085821 271.3306  87.7944 13.91695612263475
Epoch: 2025-10-26T00:15Z
TLE epoch observation values (Epoch: 2025-10-26T00:15:21.477Z)
Latitude
-0.00001°
Longitude
-4.70659°
Altitude
922.907 km
Speed
7.392 km/s
True Right ascension
02h 15m 03s
True Declination
0° 00' 00"
Sunlit
Object was in full shadow at epoch
Visualization orbit readout
Latitude
Unknown
Longitude
Unknown
Altitude
Unknown
Speed
Unknown
Apparent Right ascension
Unknown
Apparent Declination
Unknown
Sunlit
N/A
Visualization observer readout
Local Sidereal Time
02:51:53
Azimuth
Unknown
Elevation
Unknown
Doppler factor
Unknown
Orbital elements
Apogee altitude
983.715 km
Perigee altitude
858.43 km
Semi-major axis
7,299.21 km
Eccentricity
0.00858
Inclination
66.9261°
RAAN
33.7659°
Arg. of periapsis
271.3306°
True anomaly
88.77747°
Mean anomaly
87.7944°
Eccentric anomaly
88.2859°
Mean motion
3.4804 °/min
Orbital period
103.44 mins
BSTAR
0.00012578

Documentation

Showing up to 5 results
|